TimeCDT,TemperatureF,Dew PointF,Humidity,Sea Level PressureIn,VisibilityMPH,Wind Direction,Wind SpeedMPH,Gust SpeedMPH,PrecipitationIn,Events,Conditions,WindDirDegrees,DateUTC
12:53 AM,66.9,55.9,68,29.95,10.0,Calm,Calm,-,N/A,,Overcast,0,2012-10-16 05:53:00
1:53 AM,66.0,55.9,70,29.94,10.0,Calm,Calm,-,N/A,,Overcast,0,2012-10-16 06:53:00
2:53 AM,66.0,55.9,70,29.93,10.0,Calm,Calm,-,N/A,,Overcast,0,2012-10-16 07:53:00
3:53 AM,66.0,55.0,68,29.92,10.0,Calm,Calm,-,N/A,,Overcast,0,2012-10-16 08:53:00
4:53 AM,66.9,59.0,76,29.91,10.0,Calm,Calm,-,N/A,,Overcast,0,2012-10-16 09:53:00
5:53 AM,66.0,57.9,75,29.90,10.0,Calm,Calm,-,N/A,,Overcast,0,2012-10-16 10:53:00
6:53 AM,66.2,55.4,68,29.95,10.0,Calm,Calm,-,N/A,,Overcast,0,2012-10-16 11:53:00
7:53 AM,66.0,55.9,70,29.90,10.0,Calm,Calm,-,N/A,,Overcast,0,2012-10-16 12:53:00
8:53 AM,68.0,59.0,73,29.91,10.0,Calm,Calm,-,0.00,,Overcast,0,2012-10-16 13:53:00
9:53 AM,69.1,59.0,70,29.92,10.0,Calm,Calm,-,N/A,,Overcast,0,2012-10-16 14:53:00
10:53 AM,68.0,63.0,84,29.93,10.0,Calm,Calm,-,0.02,Rain,Light Rain,0,2012-10-16 15:53:00
11:53 AM,69.1,64.0,84,29.91,9.0,Calm,Calm,-,0.00,Rain,Light Rain,0,2012-10-16 16:53:00
12:22 PM,69.8,64.4,83,29.94,10.0,Calm,Calm,-,0.00,Rain,Light Rain,0,2012-10-16 17:22:00
12:53 PM,70.0,64.9,84,29.88,9.0,Variable,3.5,-,0.00,Rain,Light Rain,0,2012-10-16 17:53:00
1:07 PM,69.8,64.4,83,29.91,10.0,Calm,Calm,-,0.00,,Overcast,0,2012-10-16 18:07:00
1:51 PM,71.6,66.2,83,29.88,9.0,ESE,4.6,-,0.00,Rain,Light Rain,120,2012-10-16 18:51:00
1:53 PM,71.1,66.0,84,29.83,9.0,ESE,4.6,-,0.00,Rain,Light Rain,120,2012-10-16 18:53:00
2:22 PM,71.6,66.2,83,29.86,10.0,SE,4.6,-,0.00,Rain,Light Rain,130,2012-10-16 19:22:00
2:53 PM,72.0,66.9,84,29.80,9.0,SE,6.9,-,0.00,Rain,Light Rain,140,2012-10-16 19:53:00
3:53 PM,73.0,68.0,84,29.78,10.0,ESE,4.6,-,0.00,,Overcast,120,2012-10-16 20:53:00
4:53 PM,73.0,68.0,84,29.77,10.0,East,4.6,-,N/A,,Overcast,90,2012-10-16 21:53:00
5:26 PM,73.4,68.0,83,29.81,10.0,East,5.8,-,N/A,,Overcast,90,2012-10-16 22:26:00
5:53 PM,72.0,68.0,87,29.76,10.0,ESE,5.8,-,N/A,,Overcast,110,2012-10-16 22:53:00
6:53 PM,71.1,69.1,93,29.77,10.0,ENE,4.6,-,N/A,,Overcast,70,2012-10-16 23:53:00
7:11 PM,71.6,69.8,94,29.81,10.0,East,5.8,-,N/A,,Overcast,80,2012-10-17 00:11:00
7:53 PM,71.1,69.1,93,29.78,10.0,ESE,5.8,-,N/A,,Overcast,110,2012-10-17 00:53:00
8:29 PM,69.8,69.8,100,29.82,8.0,East,6.9,-,N/A,,Overcast,100,2012-10-17 01:29:00
8:53 PM,70.0,68.0,93,29.78,9.0,East,8.1,-,N/A,,Overcast,100,2012-10-17 01:53:00
9:53 PM,69.1,69.1,100,29.78,6.0,ESE,10.4,-,N/A,,Overcast,120,2012-10-17 02:53:00
10:16 PM,68.0,68.0,100,29.82,2.5,ESE,15.0,-,0.00,,Light Drizzle,120,2012-10-17 03:16:00
10:53 PM,68.0,66.0,93,29.78,5.0,ESE,10.4,-,0.00,,Overcast,110,2012-10-17 03:53:00
11:53 PM,66.0,66.0,100,29.77,5.0,SE,8.1,-,N/A,,Overcast,130,2012-10-17 04:53:00